Meteo pe oră la Aalten

Astăzi, 13 Iunie, Duminică

Timp Temperatura Precipitaţii Vânt Presiune Umiditate
00:00 +9°C° 0 mm 2 m/s 766 mmHg 93%
01:00 +9°C° 0 mm 2 m/s 766 mmHg 93%
02:00 +8°C° 0 mm 2 m/s 767 mmHg 93%
03:00 +9°C° 0 mm 1 m/s 767 mmHg 93%
04:00 +10°C° 0 mm 1 m/s 767 mmHg 88%
05:00 +12°C° 0 mm 1 m/s 767 mmHg 83%
06:00 +13°C° 0 mm 1 m/s 767 mmHg 78%
07:00 +15°C° 0 mm 1 m/s 768 mmHg 71%
08:00 +16°C° 0 mm 2 m/s 768 mmHg 64%
09:00 +18°C° 0 mm 2 m/s 768 mmHg 57%
10:00 +19°C° 0 mm 2 m/s 768 mmHg 54%
11:00 +21°C° 0 mm 1 m/s 768 mmHg 51%
12:00 +22°C° 0 mm 1 m/s 768 mmHg 48%
13:00 +22°C° 0 mm 1 m/s 767 mmHg 47%
14:00 +23°C° 0 mm 1 m/s 767 mmHg 46%
15:00 +23°C° 0 mm 1 m/s 767 mmHg 46%
16:00 +23°C° 0 mm 1 m/s 766 mmHg 51%
17:00 +22°C° 0 mm 1 m/s 766 mmHg 57%
18:00 +22°C° 0 mm 1 m/s 766 mmHg 62%
19:00 +20°C° 0 mm 1 m/s 766 mmHg 66%
20:00 +18°C° 0 mm 1 m/s 766 mmHg 70%
21:00 +15°C° 0 mm 1 m/s 766 mmHg 74%
22:00 +15°C° 0 mm 1 m/s 766 mmHg 75%
23:00 +14°C° 0 mm 1 m/s 766 mmHg 77%

Mâine, 14 Iunie, Luni

Timp Temperatura Precipitaţii Vânt Presiune Umiditate
00:00 +14°C° 0 mm 1 m/s 765 mmHg 79%
01:00 +14°C° 0 mm 1 m/s 765 mmHg 79%
02:00 +13°C° 0 mm 1 m/s 765 mmHg 80%
03:00 +13°C° 0 mm 2 m/s 764 mmHg 80%
04:00 +14°C° 0 mm 2 m/s 764 mmHg 77%
05:00 +16°C° 0 mm 2 m/s 764 mmHg 73%
06:00 +17°C° 0 mm 2 m/s 764 mmHg 70%
07:00 +19°C° 0 mm 2 m/s 764 mmHg 64%
08:00 +21°C° 0 mm 3 m/s 764 mmHg 59%
09:00 +22°C° 0 mm 3 m/s 764 mmHg 54%
10:00 +24°C° 0 mm 3 m/s 763 mmHg 50%
11:00 +25°C° 0 mm 3 m/s 763 mmHg 47%
12:00 +26°C° 0 mm 3 m/s 763 mmHg 44%
13:00 +27°C° 0 mm 3 m/s 762 mmHg 44%
14:00 +27°C° 0 mm 2 m/s 762 mmHg 44%
15:00 +27°C° 0 mm 2 m/s 762 mmHg 44%
16:00 +26°C° 0 mm 2 m/s 762 mmHg 51%
17:00 +26°C° 0 mm 2 m/s 761 mmHg 58%
18:00 +25°C° 0 mm 2 m/s 761 mmHg 65%
19:00 +23°C° 0 mm 2 m/s 762 mmHg 73%
20:00 +19°C° 0 mm 3 m/s 762 mmHg 82%
21:00 +17°C° 0 mm 3 m/s 762 mmHg 91%
22:00 +17°C° 0 mm 3 m/s 762 mmHg 93%
23:00 +16°C° 0 mm 2 m/s 762 mmHg 94%

Poimâine, 15 Iunie, Marţi

Timp Temperatura Precipitaţii Vânt Presiune Umiditate
00:00 +16°C° 0 mm 2 m/s 762 mmHg 96%
01:00 +16°C° 0 mm 2 m/s 762 mmHg 96%
02:00 +15°C° 0 mm 2 m/s 763 mmHg 95%
03:00 +15°C° 0 mm 2 m/s 763 mmHg 95%
04:00 +14°C° 0 mm 3 m/s 763 mmHg 91%
05:00 +16°C° 0 mm 3 m/s 763 mmHg 87%
06:00 +16°C° 0 mm 3 m/s 763 mmHg 84%
07:00 +16°C° 0 mm 3 m/s 763 mmHg 79%
08:00 +17°C° 0 mm 3 m/s 763 mmHg 75%
09:00 +18°C° 0 mm 3 m/s 763 mmHg 70%
10:00 +19°C° 0 mm 3 m/s 763 mmHg 66%
11:00 +20°C° 0 mm 2 m/s 763 mmHg 62%
12:00 +23°C° 0 mm 2 m/s 763 mmHg 57%
13:00 +23°C° 0 mm 2 m/s 763 mmHg 56%
14:00 +23°C° 0 mm 2 m/s 762 mmHg 55%
15:00 +24°C° 0 mm 2 m/s 762 mmHg 54%
16:00 +23°C° 0 mm 2 m/s 762 mmHg 59%
17:00 +23°C° 0 mm 2 m/s 762 mmHg 63%
18:00 +21°C° 0 mm 2 m/s 761 mmHg 68%
19:00 +20°C° 0 mm 2 m/s 761 mmHg 70%
20:00 +19°C° 0 mm 3 m/s 761 mmHg 72%
21:00 +17°C° 0 mm 3 m/s 761 mmHg 75%
22:00 +17°C° 0 mm 3 m/s 761 mmHg 77%
23:00 +16°C° 0 mm 3 m/s 761 mmHg 79%

16 Iunie, Miercuri

Timp Temperatura Precipitaţii Vânt Presiune Umiditate
00:00 +14°C° 0 mm 3 m/s 761 mmHg 82%
01:00 +14°C° 0 mm 3 m/s 761 mmHg 82%
02:00 +14°C° 0 mm 3 m/s 760 mmHg 83%
03:00 +14°C° 0 mm 3 m/s 760 mmHg 83%
04:00 +16°C° 0 mm 3 m/s 760 mmHg 81%
05:00 +17°C° 0 mm 3 m/s 760 mmHg 78%
06:00 +18°C° 0 mm 3 m/s 759 mmHg 75%
07:00 +20°C° 0 mm 3 m/s 759 mmHg 71%
08:00 +22°C° 0 mm 3 m/s 759 mmHg 67%
09:00 +25°C° 0 mm 2 m/s 759 mmHg 63%
10:00 +26°C° 0 mm 2 m/s 759 mmHg 60%
11:00 +27°C° 0 mm 2 m/s 758 mmHg 57%
12:00 +28°C° 0 mm 2 m/s 758 mmHg 54%
13:00 +29°C° 0 mm 2 m/s 758 mmHg 53%
14:00 +29°C° 0 mm 2 m/s 757 mmHg 51%
15:00 +30°C° 0 mm 1 m/s 757 mmHg 49%
16:00 +29°C° 0 mm 2 m/s 757 mmHg 55%
17:00 +29°C° 0 mm 2 m/s 757 mmHg 61%
18:00 +28°C° 0 mm 3 m/s 757 mmHg 67%
19:00 +26°C° 0 mm 3 m/s 756 mmHg 71%
20:00 +25°C° 0 mm 3 m/s 756 mmHg 74%
21:00 +22°C° 0 mm 3 m/s 756 mmHg 78%
22:00 +22°C° 0 mm 3 m/s 756 mmHg 77%
23:00 +22°C° 0 mm 3 m/s 756 mmHg 77%

17 Iunie, Joi

Timp Temperatura Precipitaţii Vânt Presiune Umiditate
00:00 +21°C° 0 mm 3 m/s 756 mmHg 77%
01:00 +21°C° 0 mm 3 m/s 756 mmHg 76%
02:00 +20°C° 0 mm 3 m/s 756 mmHg 76%
03:00 +20°C° 0 mm 3 m/s 755 mmHg 75%
04:00 +21°C° 0 mm 3 m/s 755 mmHg 74%
05:00 +22°C° 0 mm 3 m/s 755 mmHg 72%
06:00 +24°C° 0 mm 3 m/s 755 mmHg 71%
07:00 +26°C° 0 mm 4 m/s 755 mmHg 64%
08:00 +28°C° 0 mm 4 m/s 755 mmHg 57%
09:00 +30°C° 0 mm 4 m/s 755 mmHg 51%
10:00 +32°C° 0 mm 4 m/s 755 mmHg 48%
11:00 +33°C° 0 mm 4 m/s 755 mmHg 46%
12:00 +34°C° 0 mm 5 m/s 755 mmHg 43%
13:00 +34°C° 0 mm 5 m/s 755 mmHg 45%
14:00 +34°C° 0 mm 5 m/s 755 mmHg 46%
15:00 +34°C° 0 mm 5 m/s 755 mmHg 48%
16:00 +33°C° 0 mm 4 m/s 755 mmHg 55%
17:00 +32°C° 0 mm 4 m/s 755 mmHg 62%
18:00 +29°C° 0 mm 3 m/s 755 mmHg 69%
19:00 +27°C° 0 mm 3 m/s 756 mmHg 77%
20:00 +25°C° 0 mm 3 m/s 756 mmHg 85%
21:00 +22°C° 0 mm 3 m/s 756 mmHg 92%
22:00 +21°C° 0.1 mm 3 m/s 757 mmHg 93%
23:00 +21°C° 0.1 mm 2 m/s 757 mmHg 93%

18 Iunie, Vineri

Timp Temperatura Precipitaţii Vânt Presiune Umiditate
00:00 +20°C° 0.1 mm 2 m/s 757 mmHg 94%
01:00 +20°C° 0.1 mm 2 m/s 757 mmHg 94%
02:00 +20°C° 0.1 mm 2 m/s 757 mmHg 94%
03:00 +19°C° 0.1 mm 2 m/s 757 mmHg 94%
04:00 +20°C° 0.2 mm 2 m/s 757 mmHg 91%
05:00 +21°C° 0.2 mm 3 m/s 757 mmHg 88%
06:00 +22°C° 0.2 mm 3 m/s 757 mmHg 84%
07:00 +25°C° 0.5 mm 3 m/s 757 mmHg 80%
08:00 +26°C° 0.5 mm 2 m/s 757 mmHg 75%
09:00 +28°C° 0.5 mm 2 m/s 757 mmHg 71%
10:00 +29°C° 0.2 mm 2 m/s 757 mmHg 65%
11:00 +30°C° 0.2 mm 2 m/s 756 mmHg 60%
12:00 +31°C° 0.2 mm 2 m/s 756 mmHg 55%
13:00 +32°C° 0.1 mm 2 m/s 756 mmHg 53%
14:00 +33°C° 0.1 mm 3 m/s 756 mmHg 50%
15:00 +33°C° 0.1 mm 4 m/s 756 mmHg 47%
16:00 +30°C° 1.4 mm 3 m/s 756 mmHg 58%
17:00 +27°C° 1.4 mm 3 m/s 756 mmHg 69%
18:00 +25°C° 1.4 mm 3 m/s 756 mmHg 80%
19:00 +24°C° 0.2 mm 3 m/s 757 mmHg 79%
20:00 +22°C° 0.2 mm 3 m/s 757 mmHg 79%
21:00 +21°C° 0.2 mm 3 m/s 758 mmHg 78%
22:00 +20°C° 0 mm 3 m/s 758 mmHg 80%
23:00 +19°C° 0 mm 3 m/s 758 mmHg 82%
Arată mai mult

Formular de consimțământ

Meteoprog și furnizorii noștri de servicii pot stoca și accesa date personale, precum cookies, identificatori de dispozitiv sau alte tehnologii similare pe dispozitivul dumneavoastră și procesa astfel de date pentru a personaliza conținutul și reclamele, dar și pentru a oferi caracteristici de social media și pentru a analiza traficul.

  • Stocarea și/sau accesarea informațiilor pe dispozitivul dumneavoastră

    Cookies, identificatori de dispozitiv sau alte informații pot fi stocate sau accesate pe dispozitiv în scopurile indicate mai sus.

  • Reclame și conținut personalizat, evaluarea reclamelor și a conținutului, informații despre audiențe și dezvoltarea produselor

    Reclamele și conținutul pot fi personalizate pe baza unui profil. Pot fi adăugate date suplimentare pentru a personaliza mai bine reclamele și conținutul. Performanța reclamelor și conținutului poate fi măsurată. Pot fi obținute informații despre utilizatorii care au văzut reclamele și conținutul. Aceste date pot fi utilizate pentru a dezvolta sau îmbunătăți experiența utilizatorilor, sistemele și software-ul.

Dând clic pe ‘Sunt de acord’, permiteți utilizarea cookie-urilor menționate, a identificatorilor de dispozitiv, balizelor web sau altor tehnologii similare. Setările pot fi modificate din browser-ul dispozitivului dumneavoastră.

În anumite scopuri, interesele legitime pot prima asupra consimțământului. Puteți citi mai multe informații în acest sens în Politica privind Confidențialitatea Datelor și Cookie.